Location: Nachod
(50.4170°N, 16.1670°E)
Time: 23:48:41
(UTC+02:00)

ISS - Pass Details

Date: 24 March 2019
Orbit: 408 x 410 km, 51.6° (Epoch: 26 April)

Event Time Altitude Azimuth Distance (km) Brightness Sun altitude
Rises 19:26:26 0° 231° (SW) 2,328 0.5 -12.1°
Reaches altitude 10° 19:28:34 10° 224° (SW) 1,469 -0.7 -12.4°
Maximum altitude 19:31:42 42° 152° (SSE) 599 -3.3 -12.9°
Enters shadow 19:33:13 24° 96° (E) 883 -2.7 -13.1°
